Regional Weather Roundup
Issued by NWS State College, PA

Home | Current Version | Previous Version | Text Only | Print | Product List | Glossary Off
Versions: 1 2 3 4 5 6 7 8 9 10 11 12 13 14 15 16 17 18 19 20 21 22 23 24 25 26 27 28 29 30 31 32 33 34 35 36 37 38 39 40 41 42 43 44 45 46 47 48 49 50

000
ASUS41 KCTP 030210
RWRCTP

REGIONAL WEATHER ROUNDUP
NATIONAL WEATHER SERVICE STATE COLLEGE PA
1000 PM EDT TUE SEP 02 2014

Note: "fair" indicates few or no clouds below 12,000 feet with no
significant weather and/or obstructions to visibility.

* = STATION THAT DOES NOT REPORT PRECIPITATION /E.G. RAIN...SNOW...ETC/
    THUNDER OR FOG.

PAZ002>004-007>009-013>016-020>023-029>032-030300-
WESTERN PENNSYLVANIA

CITY           SKY/WX    TMP DP  RH WIND       PRES   REMARKS
ERIE           MOCLDY    68  64  88 SW5       29.93R
MEADVILLE      PTCLDY    65  63  93 CALM      29.96R
FRANKLIN*      PTCLDY    64  61  88 NW3       29.98R
NEW CASTLE     FAIR      66  66 100 CALM      29.97R
BEAVER COUNTY  NOT AVBL
BUTLER*        CLEAR     66  63  88 CALM      29.98R
PITTSBURGH INT PTCLDY    70  65  84 SW3       29.97R
PITTSBURGH     PTCLDY    72  63  73 W8        29.97R
INDIANA*       MOCLDY    68  68 100 CALM      30.01R
LATROBE        MOCLDY    72  72 100 SW6       29.98R
WASHINGTON CO* PTCLDY    66  64  94 CALM      29.99R
$$

PAZ004>006-010>012-017>019-024>028-033>037-041-042-045-046-049>053-030300-
CENTRAL PENNSYLVANIA

CITY           SKY/WX    TMP DP  RH WIND       PRES   REMARKS
BRADFORD       PTCLDY    63  61  93 W6        29.97S
DUBOIS         CLOUDY    67  65  93 NW6       29.97R
CLEARFIELD     PTCLDY    66  66 100 CALM      29.96R
JOHNSTOWN      MOCLDY    68  65  90 NW8       30.01R
ALTOONA        CLOUDY    70  69  97 CALM      29.98R
STATE COLLEGE  PTCLDY    66  65  97 CALM      29.95R
WILLIAMSPORT   MOCLDY    72  66  81 NW8       29.89R
SELINSGROVE    PTCLDY    72  69  90 CALM      29.90R
FT INDIANTOWN  MOCLDY    73  73  99 SW6       29.91R
CAPITAL CITY   CLOUDY    74  68  81 W6        29.91R
HARRISBURG     MOCLDY    76  69  79 W5        29.90R
YORK           PTCLDY    74  67  78 CALM      29.91R
$$

PAZ038>040-043-044-047-048-054-055-060>062-067>071-030300-
EASTERN PENNSYLVANIA

CITY           SKY/WX    TMP DP  RH WIND       PRES   REMARKS
SCRANTON       CLOUDY    75  70  84 W12       29.88R
MOUNT POCONO   CLOUDY    70  67  90 W17G26    29.90R
ALLENTOWN      CLOUDY    76  66  71 SW20G26   29.87R
QUAKERTOWN*    CLOUDY    73  68  83 MISG      29.89S
READING        CLOUDY    75  67  76 SW7       29.89R
LANCASTER      CLOUDY    73  67  81 W8        29.90S
COATESVILLE    CLOUDY    72  70  94 W7        29.92S
POTTSTOWN      CLOUDY    74  68  81 SW5       29.90R
BLUE BELL      CLOUDY    77  70  78 SW8       29.88R
DOYLESTOWN     CLOUDY    76  67  73 SW6       29.87R
WILLOW GROVE   NOT AVBL
NORTH PHILA    CLOUDY    76  68  76 SW7       29.89R
PHILADELPHIA   CLOUDY    76  71  85 SW12      29.90R
$$



USA.gov is the U.S. government's official web portal to all federal, state and local government web resources and services.